Hourly Data Report for September 12, 2018

ASHCROFT
BRITISH COLUMBIA
Current Station Operator: ECCC - MSC

50°42'30.005" N
121°16'53.001" W
327.00 m
1160515
71681
VAS

Download Data

Hourly Data (September 2018)
Hourly Data Report for September 12, 2018
TIME
LST
Temp Definition
°C
Dew Point Definition
°C
Rel Hum Definition
%
Precip. Amount Definition
mm

Wind Dir Definition
10's deg

Wind Spd Definition
km/h
Visibility Definition
km
Stn Press Definition
kPa
Hmdx Definition


Wind Chill Definition


Weather Definition


00:00 12.4 5.2 61 0.0 0 1   97.27     LegendNANA
01:00 13.2 4.9 57 0.0 8 9   97.31     LegendNANA
02:00 11.6 8.3 80 0.0 4 5   97.33     LegendNANA
03:00 11.4 7.8 79 0.2 14 5   97.32     LegendNANA
04:00 10.9 8.2 83 0.0 6 2   97.32     LegendNANA
05:00 10.7 8.3 85 0.0 13 2   97.31     LegendNANA
06:00 10.7 7.9 82 0.0 14 1   97.33     LegendNANA
07:00 11.4 6.1 70 0.0 21 2   97.34     LegendNANA
08:00 12.3 6.1 66 0.0   0   97.35     LegendNANA
09:00 13.0 6.6 65 0.0 34 3   97.35     LegendNANA
10:00 14.0 6.4 60 0.0 34 3   97.31     LegendNANA
11:00 15.8 6.6 54 0.0 33 3   97.24     LegendNANA
12:00 17.3 5.9 47 0.0 34 4   97.19     LegendNANA
13:00 15.3 7.5 60 0.0 7 10   97.18     LegendNANA
14:00 16.8 7.8 55 0.0 32 3   97.15     LegendNANA
15:00 16.8 6.8 52 0.0 20 8   97.13     LegendNANA
16:00 13.9 9.2 73 0.6 13 5   97.23     LegendNANA
17:00 13.4 10.2 81 0.8 15 3   97.25     LegendNANA
18:00 12.8 9.5 81 0.2 3 8   97.27     LegendNANA
19:00 11.9 9.7 87 0.2 2 6   97.32     LegendNANA
20:00 11.3 6.7 73 1.0 7 20   97.37     LegendNANA
21:00 11.2 4.9 65 0.4 3 12   97.42     LegendNANA
22:00 9.5 5.4 75 0.0 7 11   97.48     LegendNANA
23:00 9.1 4.0 70 0.2 6 13   97.52     LegendNANA

Notes on Data Quality.

Legend

  • E = Estimated
  • M = Missing
  • NA = Not Available*
  • [empty] = Indicates an unobserved value
Date modified: